Weather History for Toccoa Rg Letourneau Field, T, GA

Change the Weather History Date:

Tuesday, January 28, 2014

  Actual Average Record
Temperature  
Mean Temperature 33 °F -  
Max Temperature 38 °F 53 °F 38 °F (2014)
Min Temperature 27 °F 31 °F 27 °F (2014)
Degree Days  
Heating Degree Days 32    
Moisture  
Dew Point 18 °F    
Average Humidity 60    
Maximum Humidity 93    
Minimum Humidity 29    
Precipitation  
Precipitation 0.00 in - - ()
Sea Level Pressure  
Sea Level Pressure 30.13 in    
Wind  
Wind Speed 3 mph (ENE)    
Max Wind Speed 10 mph    
Max Gust Speed -    
Visibility 8 miles    
Events Rain , Snow    
Averages and records for this station are not official NWS values.
T = Trace of Precipitation, MM = Missing Value Source: NWS Daily Summary

Daily Weather History Graph

Daily Weather History Graph

Search for Another Location

Airport:

Trip Planner

Search our weather history database for the weather conditions in past years. The results will help you decide how hot, cold, wet, or windy it might be!

Date:

Astronomy

Jan. 28, 2014 Rise Set
Actual Time 7:33 AM EST 5:58 PM EST
Civil Twilight 7:07 AM EST 6:25 PM EST
Nautical Twilight 6:37 AM EST 6:55 PM EST
Astronomical Twilight 6:07 AM EST 7:25 PM EST
Moon 5:12 AM EST (1/28) 3:49 PM EST (1/28)
Length of Visible Light 11h 18m
Length of Day
10h 24m
Waning Crescent, 7% of the Moon is Illuminated
Jan 28
Waning Crescent
Jan 30
New
Feb 6
First Quarter
Feb 14
Full
Feb 22
Last Quarter

Hourly Weather History & Observations

Time (EST) Temp. Windchill Dew Point Humidity Pressure Visibility Wind Dir Wind Speed Gust Speed Precip Events Conditions
12:15 AM 39.2 °F 35.9 °F 16.2 °F 39% 30.02 in 10.0 mi North 4.6 mph - N/A   Clear
12:35 AM 39.2 °F 37.0 °F 15.1 °F 37% 30.02 in 10.0 mi North 3.5 mph - N/A   Clear
12:55 AM 38.7 °F - 14.9 °F 38% 30.02 in 10.0 mi Calm Calm - N/A   Clear
1:15 AM 37.6 °F - 17.6 °F 44% 30.02 in 10.0 mi Calm Calm - N/A   Clear
1:35 AM 36.7 °F - 20.8 °F 53% 30.03 in 10.0 mi Calm Calm - N/A   Clear
1:55 AM 37.4 °F 34.9 °F 15.4 °F 41% 30.04 in 10.0 mi West 3.5 mph - N/A   Clear
2:15 AM 36.7 °F 32.9 °F 13.6 °F 39% 30.04 in 10.0 mi West 4.6 mph - N/A   Clear
2:35 AM 36.5 °F 33.9 °F 12.9 °F 38% 30.05 in 10.0 mi West 3.5 mph - N/A   Clear
2:55 AM 36.1 °F 32.3 °F 11.7 °F 36% 30.05 in 10.0 mi West 4.6 mph - N/A   Clear
3:15 AM 36.0 °F 33.3 °F 10.9 °F 36% 30.06 in 10.0 mi West 3.5 mph - N/A   Clear
3:35 AM 36.0 °F 33.3 °F 10.4 °F 35% 30.06 in 10.0 mi WNW 3.5 mph - N/A   Clear
3:55 AM 36.1 °F - 10.2 °F 34% 30.06 in 10.0 mi Calm Calm - N/A   Clear
4:15 AM 36.1 °F - 11.1 °F 36% 30.06 in 10.0 mi Calm Calm - N/A   Clear
4:35 AM 35.8 °F 33.0 °F 12.7 °F 39% 30.06 in 10.0 mi East 3.5 mph - N/A   Clear
4:55 AM 35.6 °F - 13.3 °F 40% 30.07 in 10.0 mi Calm Calm - N/A   Clear
5:15 AM 35.6 °F 32.8 °F 14.4 °F 42% 30.09 in 10.0 mi NNE 3.5 mph - N/A   Clear
5:35 AM 35.6 °F 32.8 °F 15.6 °F 44% 30.09 in 10.0 mi ENE 3.5 mph - N/A   Clear
5:55 AM 35.8 °F - 16.0 °F 45% 30.10 in 10.0 mi Calm Calm - N/A   Scattered Clouds
6:15 AM 35.8 °F 31.9 °F 12.9 °F 39% 30.11 in 10.0 mi East 4.6 mph - N/A   Mostly Cloudy
6:35 AM 35.6 °F 31.7 °F 11.3 °F 37% 30.11 in 10.0 mi East 4.6 mph - N/A   Overcast
6:55 AM 35.2 °F 32.4 °F 12.6 °F 39% 30.12 in 10.0 mi ENE 3.5 mph - N/A   Overcast
7:15 AM 35.1 °F 30.1 °F 10.6 °F 36% 30.14 in 10.0 mi East 5.8 mph - N/A   Overcast
7:35 AM 34.9 °F 28.3 °F 8.8 °F 34% 30.15 in 10.0 mi East 8.1 mph - N/A   Overcast
7:55 AM 34.7 °F 30.6 °F 9.0 °F 34% 30.14 in 10.0 mi East 4.6 mph - N/A   Overcast
8:15 AM 34.7 °F 28.1 °F 8.8 °F 34% 30.15 in 10.0 mi East 8.1 mph - N/A   Overcast
8:35 AM 34.7 °F 29.6 °F 7.7 °F 32% 30.16 in 10.0 mi East 5.8 mph - N/A   Overcast
8:55 AM 34.7 °F 28.1 °F 7.7 °F 32% 30.16 in 10.0 mi East 8.1 mph - N/A   Overcast
9:15 AM 34.7 °F 29.6 °F 8.1 °F 33% 30.17 in 10.0 mi East 5.8 mph - N/A   Overcast
9:35 AM 34.9 °F 29.0 °F 8.4 °F 33% 30.19 in 10.0 mi ENE 6.9 mph - N/A   Overcast
9:55 AM 35.1 °F 31.0 °F 7.9 °F 32% 30.21 in 10.0 mi East 4.6 mph - N/A   Overcast
10:15 AM 35.6 °F 29.9 °F 7.3 °F 31% 30.21 in 10.0 mi East 6.9 mph - N/A   Overcast
10:35 AM 35.6 °F 31.7 °F 6.8 °F 30% 30.21 in 10.0 mi East 4.6 mph - N/A   Overcast
10:55 AM 35.6 °F 30.7 °F 7.0 °F 30% 30.21 in 10.0 mi ENE 5.8 mph - N/A   Overcast
11:15 AM 35.8 °F 28.8 °F 6.1 °F 29% 30.21 in 10.0 mi ESE 9.2 mph - N/A   Overcast
11:35 AM 35.6 °F 28.0 °F 8.8 °F 33% 30.20 in 10.0 mi East 10.4 mph - N/A   Overcast
11:55 AM 35.8 °F 31.9 °F 8.8 °F 33% 30.19 in 10.0 mi SE 4.6 mph - N/A   Overcast
12:15 PM 35.1 °F 28.6 °F 11.3 °F 37% 30.18 in 10.0 mi NE 8.1 mph - N/A   Overcast
12:35 PM 34.5 °F 29.4 °F 14.2 °F 43% 30.18 in 10.0 mi NE 5.8 mph - N/A   Overcast
12:55 PM 33.3 °F 27.9 °F 19.8 °F 58% 30.17 in 5.0 mi NE 5.8 mph - N/A Snow Light Snow
1:15 PM 32.9 °F 27.5 °F 20.8 °F 61% 30.17 in 7.0 mi NNE 5.8 mph - N/A Snow Light Snow
1:35 PM 32.0 °F 28.7 °F 22.8 °F 69% 30.17 in 5.0 mi North 3.5 mph - N/A Rain Light Rain
1:55 PM 31.1 °F - 25.5 °F 80% 30.17 in 1.8 mi Calm Calm - N/A Snow Light Snow
2:15 PM 30.2 °F - 26.6 °F 86% 30.16 in 1.0 mi Calm Calm - N/A Snow Light Snow
2:35 PM 30.0 °F 26.5 °F 27.0 °F 88% 30.16 in 1.0 mi ENE 3.5 mph - N/A Snow Light Snow
2:55 PM 30.0 °F 25.2 °F 27.3 °F 90% 30.15 in 0.8 mi East 4.6 mph - N/A Snow Light Snow
3:15 PM 30.0 °F 25.2 °F 27.5 °F 90% 30.14 in 1.0 mi East 4.6 mph - N/A Snow Light Snow
3:35 PM 30.2 °F - 27.9 °F 91% 30.14 in 1.0 mi Calm Calm - N/A Snow Light Snow
3:55 PM 29.5 °F 25.9 °F 27.3 °F 92% 30.14 in 1.0 mi East 3.5 mph - N/A Snow Light Snow
4:15 PM 29.7 °F 24.7 °F 27.5 °F 92% 30.14 in 1.0 mi East 4.6 mph - N/A Snow Light Snow
4:35 PM 29.3 °F 25.6 °F 27.3 °F 92% 30.14 in 0.8 mi East 3.5 mph - N/A Snow Light Snow
4:55 PM 29.1 °F 24.1 °F 27.1 °F 92% 30.14 in 1.0 mi East 4.6 mph - N/A Snow Light Snow
5:15 PM 29.3 °F 25.6 °F 27.5 °F 93% 30.14 in 1.0 mi ENE 3.5 mph - N/A Snow Light Snow
5:35 PM 28.9 °F 23.9 °F 27.0 °F 92% 30.13 in 1.0 mi ESE 4.6 mph - N/A Snow Light Snow
5:55 PM 28.8 °F 25.0 °F 26.6 °F 92% 30.13 in 3.0 mi East 3.5 mph - N/A Snow Light Snow
6:15 PM 28.6 °F 23.5 °F 26.6 °F 92% 30.12 in 5.0 mi East 4.6 mph - N/A Snow Light Snow
6:35 PM 28.4 °F 24.6 °F 25.7 °F 90% 30.14 in 10.0 mi ENE 3.5 mph - N/A Snow Light Snow
6:55 PM 28.4 °F - 25.7 °F 90% 30.14 in 10.0 mi Calm Calm - N/A   Overcast
7:15 PM 28.8 °F - 25.9 °F 89% 30.15 in 10.0 mi Calm Calm - N/A   Overcast
7:35 PM 28.6 °F 24.8 °F 25.7 °F 89% 30.16 in 10.0 mi ENE 3.5 mph - N/A   Overcast
7:55 PM 28.4 °F 24.6 °F 25.5 °F 89% 30.16 in 10.0 mi East 3.5 mph - N/A   Overcast
8:15 PM 28.4 °F - 25.5 °F 89% 30.16 in 10.0 mi Calm Calm - N/A   Overcast
8:35 PM 28.4 °F - 25.7 °F 90% 30.16 in 10.0 mi Calm Calm - N/A   Overcast
8:55 PM 28.4 °F - 25.7 °F 90% 30.16 in 10.0 mi Calm Calm - N/A   Overcast
9:15 PM 28.4 °F - 25.7 °F 90% 30.17 in 10.0 mi Calm Calm - N/A   Overcast
9:35 PM 28.8 °F 25.0 °F 26.1 °F 90% 30.17 in 10.0 mi East 3.5 mph - N/A   Overcast
9:55 PM 28.4 °F - 25.7 °F 90% 30.16 in 10.0 mi Calm Calm - N/A   Overcast
10:15 PM 28.2 °F 24.4 °F 25.0 °F 88% 30.16 in 10.0 mi ESE 3.5 mph - N/A   Overcast
10:35 PM 27.9 °F 24.0 °F 24.3 °F 86% 30.16 in 10.0 mi ESE 3.5 mph - N/A   Overcast
10:55 PM 28.0 °F - 24.3 °F 86% 30.17 in 10.0 mi Calm Calm - N/A   Overcast
11:15 PM 27.9 °F - 24.3 °F 86% 30.17 in 10.0 mi Calm Calm - N/A   Overcast
11:35 PM 28.0 °F - 24.1 °F 85% 30.17 in 10.0 mi Calm Calm - N/A   Overcast
11:55 PM 27.9 °F - 24.3 °F 86% 30.17 in 10.0 mi Calm Calm - N/A   Overcast